Powrót do katalogu

METEOR 2-8 DEB

AktywnyPO
NORAD 36346·DEBRIS·🇷🇺 Russia

Wystrzelony Mar 25, 1982 z Plesetsk Cosmodrome

Loading…

Następne Przeloty (najbliższe 24 godziny)

TLE

NieaktualneSource: Space-Track

Epoka: Aug 30, 2026, 09:03 UTC

1 36346U 82025AG  26242.37754788  .00003523  00000-0  12085-2 0  9995
2 36346  82.5337 114.4369 0005063  83.9582 276.2184 14.35947500332421

Śledź METEOR 2-8 DEB w czasie rzeczywistym z AllMySat

Download on the App Store